User: anonymous   Login
Location: Unspecified
(0.0000°N, 0.0000°E)
Time: 01:01:36
(UTC+00:00)
Language:

STARLINK-4132 - Orbit

View from above orbital plane
View from above orbital plane
View from above satellite
View from above satellite

Ground track
Ground track

The orbit is defined by the following mean orbital elements,

1 53252U          26145.41194272 +.00000000 +00000-0 +36653-4 0 00005
2 53252  53.2108 209.6527 0001192  83.3004 276.8124 15.08836400    05
Epoch (UTC): 25 May 2026 09:53:11
Eccentricity: 0.0001192
inclination: 53.2108°
perigee height: 539 km
apogee height: 541 km
right ascension of ascending node: 209.6527°
argument of perigee: 83.3004°
revolutions per day: 15.08836400
mean anomaly at epoch: 276.8124°

The dashed part of the orbit path shows where the satellite is in the earth's shadow,  

DLR